OBJECT E

基本信息
目录编号:
45915
目录名称:
OBJECT E
国际标识:
2019-079E
轨道中心:
EARTH
物体状态:
在轨
发射日期:
2019-11-25 UTC
国别:
俄罗斯(独联体) (CIS)
轨道信息
数据来源: 国际轨道数据 AOE轨道数据
星历时间: 2026-09-11T01:14:47+0800 2026-09-07T02:00:00+0800
半长轴: 6988.473km 6988.504km
偏心率: 0.0170301 0.0170382
轨道倾角: 97.669° 97.667°
近地点辐角: 66.169° 79.142°
升交点赤经: 255.216° 251.388°
平近点角: 295.727° 305.023°
近地点: 491.321km 491.295km
远地点: 729.351km 729.439km
周期: 96.902分钟 96.903分钟
每日圈数: 14.86036 14.860263
详细信息
发射场:
PKMTR
轨道高度:
LEO
数据来源:
AOE Working Group
参考系:
TEME
时间系统:
UTC
历元类型:
SGP4
2D轨道图
3D轨道图
轨道高度分析图
轨道倾角分析图
轨道综合分析图
查看轨道综合分析图